DMSP 5D-2 F11 DEB, 28317

Orbit data source: Space-Track

DMSP 5D-2 F11 DEB, 28317 is space debris in SSO originally from a launch on Thu, 28 Nov 1991 UTC launched from the Air Force Western Test Range (AFWTR). Debris objects in space refer to the collection of defunct objects orbiting the Earth. Examples of debris include non-operational satellites, rocket bodies, and fragments generated from explosions, collisions, or faulty payload assembly.

Loading next visibility...
Identifier
28317, 1991-082AE
Orbit
SSO
Country
Flag of USUS
Related business
Manufacturer
Unknown
Mission
Spacecraft
Bus & Motor
Unknown
Mass
Unknown
Launch date (UTC)
1991-11-28 (34 years ago)
Launch vehicle
Unknown
Launch site
Air Force Western Test Range (AFWTR)
Object type
Payload
Rocket body
Debris
Shape & HBR
Unknown shape, 0.1 m
Radar Cross Section
Small (<0.1 m²)

Expand to show TLE details & history
Last TLE update: 16 hours ago

TLE from 16 hours ago
0 DMSP 5D-2 F11 DEB
1 28317U 91082AE  26104.01214104  .00000645  00000-0  29967-3 0  9998
2 28317  98.8643 123.1368 0119599 114.5524 276.0597 14.20307630134102
Epoch: 2026-04-14T00:17Z
TLE epoch observation values (Epoch: 2026-04-14T00:17:28.985Z)
Latitude
28.91213°
Longitude
-88.34359°
Altitude
819.811 km
Speed
7.45 km/s
True Right ascension
07h 52m 53s
True Declination
28° 46' 05"
Sunlit
Object was in daylight at epoch
Visualization orbit readout
Latitude
Unknown
Longitude
Unknown
Altitude
Unknown
Speed
Unknown
Apparent Right ascension
Unknown
Apparent Declination
Unknown
Sunlit
N/A
Visualization observer readout
Local Sidereal Time
22:32:29
Azimuth
Unknown
Elevation
Unknown
Doppler factor
Unknown
Orbital elements
Apogee altitude
907.584 km
Perigee altitude
735.371 km
Semi-major axis
7,199.615 km
Eccentricity
0.01196
Inclination
98.8643°
RAAN
123.1368°
Arg. of periapsis
114.5524°
True anomaly
274.69483°
Mean anomaly
276.0597°
Eccentric anomaly
275.37746°
Mean motion
3.55287 °/min
Orbital period
101.33 mins
BSTAR
0.00029967
Loading maneuver chart data...
Computing Atmospheric mass density...

Documentation

Showing up to 5 results
|